[[{"header":{"parameterUnit":"m.s-1","parameterCategory":1,"la1":30.2991,"la2":30.254,"lo1":-89.0895,"lo2":-89.0444,"dy":0.0017,"dx":0.0017,"nx":28,"ny":28,"refTime":"2025-05-31T21:00:00:Z","depth":0,"parameterNumber":2,"parameterNumberName":"U-component_of_WINDS"},"data":[0,0,0,0,0,0,0,0,0,0,0,0,0,0,0,0,0,0,0,0,0,0,0,0,0,0,0,0,0,0,0,0,0,0,0,0,0,0,0,0,0,0,0,0,0,0,0,0,0,0,0,0,0,0,0,0,0,0,-0.4315,-0.4315,0,-0.4316,-0.4316,-0.4316,-0.432,-0.432,-0.432,-0.432,-0.4321,-0.4321,-0.4321,0,0,0,0,0,0,0,0,0,0,0,0,0,-0.4318,-0.4318,-0.4315,-0.4315,-0.4315,-0.4316,-0.4316,-0.4316,-0.432,-0.432,-0.432,-0.432,-0.4321,-0.4321,-0.4321,0,0,0,0,0,0,0,0,0,0,0,0,0,-0.4317,-0.4318,-0.4315,-0.4317,-0.4317,-0.4316,-0.4316,-0.4316,-0.432,-0.432,-0.432,-0.432,-0.4321,-0.4321,-0.4321,-0.4318,0,0,-0.4321,-0.4321,0,0,0,0,0,0,0,0,-0.4317,-0.4317,-0.4317,-0.4317,-0.4317,-0.4318,-0.4317,-0.4317,-0.432,-0.4319,-0.432,-0.432,-0.432,-0.432,-0.432,-0.4318,-0.4318,-0.4321,-0.4321,-0.4321,-0.4321,0,0,0,0,0,0,0,-0.4317,-0.4317,-0.4316,-0.4317,-0.4317,-0.4318,-0.4318,-0.4317,-0.4319,-0.4319,-0.4319,-0.4319,-0.432,-0.432,-0.432,-0.4318,-0.4321,-0.4321,-0.4321,-0.4321,-0.4315,-0.4314,0,0,0,0,0,0,-0.4317,-0.4317,-0.4316,-0.4316,-0.4318,-0.4318,-0.4318,-0.4318,-0.4319,-0.4319,-0.4319,-0.4319,-0.432,-0.432,-0.432,-0.4317,-0.4321,-0.4321,-0.4321,-0.4315,-0.4315,-0.4314,0,0,0,0,0,0,-0.4317,-0.4317,-0.4315,-0.4316,-0.4316,-0.4318,-0.4317,-0.4317,-0.4317,-0.4319,-0.4319,-0.4319,-0.432,-0.432,-0.4319,-0.4317,-0.4321,-0.4321,-0.4315,-0.4315,-0.4315,-0.4311,0,0,0,0,0,0,-0.4317,-0.4317,-0.4315,-0.4316,-0.4316,-0.4314,-0.4317,-0.4317,-0.4317,-0.4318,-0.4318,-0.4319,-0.432,-0.4319,-0.4319,-0.4317,-0.4321,-0.4315,-0.4315,-0.4315,-0.4311,-0.431,-0.431,0,0,0,0,0,-0.4317,-0.4314,-0.4315,-0.4315,-0.4315,-0.4314,-0.4314,-0.4315,-0.4317,-0.4316,-0.4317,-0.4319,-0.4317,-0.4319,-0.4318,-0.4317,-0.4315,-0.4315,-0.4315,-0.4311,-0.431,-0.431,0,0,0,0,0,0,-0.4313,-0.4314,-0.4316,-0.4313,-0.4313,-0.4314,-0.4313,-0.4314,-0.4314,-0.4315,-0.4317,-0.4317,-0.4315,-0.4316,-0.4317,-0.4314,-0.4317,-0.4316,-0.4314,-0.4313,-0.4313,-0.4313,-0.4321,0,0,0,0,0,-0.4312,-0.4311,-0.4312,-0.431,-0.431,-0.4311,-0.4311,-0.4312,-0.4313,-0.4313,-0.4314,-0.4314,-0.4314,-0.4314,-0.4313,-0.4311,-0.4312,-0.431,-0.4309,-0.4309,-0.4309,-0.4308,-0.4307,-0.4314,-0.4314,-0.4314,0,0,-0.431,-0.431,-0.4309,-0.4309,-0.4309,-0.4308,-0.4311,-0.431,-0.431,-0.4313,-0.4311,-0.4312,-0.4313,-0.4311,-0.431,-0.4311,-0.4307,-0.4309,-0.4308,-0.4308,-0.4308,-0.4307,-0.4307,-0.4313,-0.4313,-0.4313,0,0,-0.4305,-0.4305,-0.4303,-0.4303,-0.4304,-0.4305,-0.4304,-0.4305,-0.4306,-0.4305,-0.4307,-0.4307,-0.4306,-0.4306,-0.4307,-0.4302,-0.4304,-0.4302,-0.43,-0.4299,-0.4299,-0.4298,-0.4297,-0.4297,-0.4302,-0.4302,-0.4302,0,-0.4302,-0.43,-0.4302,-0.4301,-0.4301,-0.4303,-0.4302,-0.4302,-0.4302,-0.4302,-0.4304,-0.4303,-0.4304,-0.4302,-0.4301,-0.4301,-0.4301,-0.4302,-0.4298,-0.4298,-0.4298,-0.4297,-0.4296,-0.4302,-0.4302,-0.4302,-0.4302,0,-0.4297,-0.4296,-0.4294,-0.4295,-0.4294,-0.4293,-0.4295,-0.4294,-0.4296,-0.4297,-0.4296,-0.4297,-0.4297,-0.4297,-0.4298,-0.4296,-0.4296,-0.4298,-0.43,-0.4297,-0.4296,-0.4296,-0.4302,-0.4302,-0.4302,-0.4302,0,0,-0.4289,-0.4291,-0.429,-0.4291,-0.4292,-0.4291,-0.429,-0.429,-0.429,-0.429,-0.429,-0.4289,-0.4291,-0.4291,-0.4293,-0.4292,-0.4289,-0.4294,-0.4294,-0.4293,-0.4287,-0.4286,-0.4286,-0.429,-0.429,-0.429,-0.4287,0,-0.4285,-0.4283,-0.4285,-0.4283,-0.4282,-0.4285,-0.4284,-0.4285,-0.4286,-0.4286,-0.4287,-0.4287,-0.4288,-0.4289,-0.4288,-0.429,-0.4288,-0.429,-0.429,-0.429,-0.429,-0.4285,-0.4284,-0.4281,-0.4287,-0.4287,-0.4287,0,-0.428,-0.428,-0.4278,-0.4279,-0.4279,-0.4278,-0.4279,-0.4279,-0.4279,-0.428,-0.4281,-0.4282,-0.4282,-0.4284,-0.4284,-0.4285,-0.4285,-0.4286,-0.4286,-0.4286,-0.4288,-0.4286,-0.428,-0.428,-0.4286,-0.4286,-0.4286,0,-0.4275,-0.4275,-0.4274,-0.4274,-0.4275,-0.4275,-0.4275,-0.4277,-0.4277,-0.4277,-0.4277,-0.4278,-0.4278,-0.4279,-0.4281,-0.4282,-0.428,-0.4282,-0.4281,-0.4281,-0.4281,-0.4281,-0.4276,-0.428,-0.428,-0.428,-0.428,0,-0.427,-0.4269,-0.4272,-0.4271,-0.427,-0.4272,-0.4271,-0.4272,-0.4273,-0.4272,-0.4275,-0.4274,-0.4277,-0.4277,-0.4279,-0.4278,-0.4278,-0.4279,-0.428,-0.4279,-0.4279,-0.428,-0.428,-0.428,-0.428,-0.428,-0.428,0,-0.4265,-0.4267,-0.4266,-0.4267,-0.4268,-0.4267,-0.4268,-0.4268,-0.4269,-0.4269,-0.4269,-0.4271,-0.4271,-0.4273,-0.4274,-0.4275,-0.4274,-0.4275,-0.4274,-0.4275,-0.4273,-0.4274,-0.4269,-0.4268,-0.4273,-0.4273,-0.4273,0,-0.4262,-0.4261,-0.4263,-0.4263,-0.4263,-0.4263,-0.4264,-0.4266,-0.4266,-0.4267,-0.4267,-0.4267,-0.4268,-0.4268,-0.427,-0.4271,-0.4272,-0.427,-0.4272,-0.4271,-0.4272,-0.4272,-0.4272,-0.4269,-0.4269,-0.4269,-0.4269,0,-0.4257,-0.4258,-0.4258,-0.4258,-0.4259,-0.4259,-0.426,-0.426,-0.4262,-0.4262,-0.4263,-0.4263,-0.4264,-0.4265,-0.4266,-0.4267,-0.4268,-0.4269,-0.4269,-0.4268,-0.4268,-0.4268,-0.4273,-0.4269,-0.4269,-0.4269,-0.4269,-0.4269,-0.4253,-0.4253,-0.4254,-0.4254,-0.4255,-0.4255,-0.4255,-0.4256,-0.4257,-0.4258,-0.4259,-0.4259,-0.4261,-0.4262,-0.4263,-0.4263,-0.4264,-0.4264,-0.4264,-0.4264,-0.4264,-0.4267,-0.4264,-0.4264,-0.4264,-0.4264,-0.4264,0,-0.4248,-0.4249,-0.4249,-0.425,-0.4251,-0.4252,-0.4253,-0.4253,-0.4253,-0.4254,-0.4255,-0.4256,-0.4256,-0.4258,-0.4259,-0.4259,-0.426,-0.4259,-0.426,-0.426,-0.4263,-0.4263,-0.4259,-0.4259,-0.4259,-0.4259,-0.4259,-0.4259,-0.4246,-0.4245,-0.4246,-0.4246,-0.4247,-0.4248,-0.4248,-0.4249,-0.425,-0.425,-0.4251,-0.4252,-0.4253,-0.4255,-0.4255,-0.4256,-0.4256,-0.4255,-0.4256,-0.4259,-0.426,-0.426,-0.426,-0.4255,-0.4255,-0.4253,-0.4253,-0.4253]},{"header":{"parameterUnit":"m.s-1","parameterCategory":1,"la1":30.2991,"la2":30.254,"lo1":-89.0895,"lo2":-89.0444,"dy":0.0017,"dx":0.0017,"nx":28,"ny":28,"refTime":"2025-05-31T21:00:00:Z","depth":0,"parameterNumber":3,"parameterNumberName":"V-component_of_WINDS"},"data":[0,0,0,0,0,0,0,0,0,0,0,0,0,0,0,0,0,0,0,0,0,0,0,0,0,0,0,0,0,0,0,0,0,0,0,0,0,0,0,0,0,0,0,0,0,0,0,0,0,0,0,0,0,0,0,0,0,0,0.7434,0.7433,0,0.7348,0.7347,0.7346,0.7277,0.7276,0.7275,0.7275,0.7182,0.7181,0.7179,0,0,0,0,0,0,0,0,0,0,0,0,0,0.7533,0.7532,0.7434,0.7433,0.7432,0.7348,0.7347,0.7346,0.7277,0.7276,0.7275,0.7274,0.7183,0.7181,0.7179,0,0,0,0,0,0,0,0,0,0,0,0,0,0.7473,0.7531,0.7434,0.7387,0.7382,0.7348,0.7347,0.7345,0.7277,0.7276,0.7275,0.7274,0.7184,0.7181,0.7178,0.7182,0,0,0.717,0.7169,0,0,0,0,0,0,0,0,0.7476,0.7469,0.7395,0.7391,0.7385,0.7322,0.7348,0.729,0.7277,0.7317,0.7275,0.7274,0.7229,0.7223,0.7209,0.7178,0.7174,0.717,0.7168,0.7167,0.7166,0,0,0,0,0,0,0,0.7481,0.7473,0.74,0.7394,0.7388,0.7369,0.7359,0.7337,0.728,0.7313,0.7308,0.7299,0.7226,0.7212,0.7206,0.7172,0.717,0.7167,0.7166,0.7165,0.7137,0.7138,0,0,0,0,0,0,0.7493,0.7477,0.7402,0.7397,0.7429,0.7368,0.7357,0.7343,0.728,0.7269,0.73,0.7296,0.7217,0.7209,0.7203,0.7201,0.7167,0.7164,0.7163,0.7136,0.7138,0.7139,0,0,0,0,0,0,0.7495,0.7487,0.7406,0.7435,0.7424,0.7368,0.7352,0.7342,0.7327,0.727,0.7259,0.7296,0.7216,0.7206,0.7187,0.7197,0.7163,0.7161,0.7135,0.7137,0.7138,0.7199,0,0,0,0,0,0,0.7498,0.7488,0.749,0.7436,0.7422,0.7394,0.7353,0.7341,0.7323,0.7317,0.7263,0.7253,0.7214,0.7192,0.7185,0.7193,0.7158,0.7134,0.7136,0.7138,0.7196,0.7203,0.7208,0,0,0,0,0,0.7502,0.751,0.7491,0.7482,0.7424,0.7395,0.7387,0.7343,0.7325,0.7325,0.7288,0.7255,0.7198,0.7191,0.7182,0.7189,0.7133,0.7136,0.7138,0.7194,0.7201,0.7208,0,0,0,0,0,0,0.7566,0.7502,0.748,0.7471,0.7439,0.7383,0.7383,0.7353,0.7324,0.732,0.7265,0.7254,0.724,0.7213,0.7206,0.7188,0.7161,0.7161,0.7207,0.7213,0.7219,0.7226,0.7156,0,0,0,0,0,0.7579,0.7562,0.7507,0.7505,0.749,0.7439,0.7425,0.7394,0.7358,0.7343,0.7305,0.727,0.7243,0.7227,0.72,0.7192,0.7178,0.7193,0.7199,0.7204,0.7204,0.7196,0.7201,0.7145,0.7145,0.7145,0,0,0.7606,0.7569,0.7562,0.7517,0.7488,0.747,0.7428,0.7411,0.7396,0.734,0.732,0.729,0.7247,0.7234,0.7226,0.721,0.7217,0.7207,0.7211,0.7209,0.7199,0.7204,0.7209,0.7147,0.7146,0.7146,0,0,0.7645,0.7617,0.7611,0.7583,0.7541,0.7507,0.7506,0.7454,0.7433,0.7412,0.7369,0.735,0.7306,0.7277,0.7256,0.7283,0.7251,0.7276,0.7307,0.7299,0.7303,0.7307,0.7315,0.7319,0.7277,0.7277,0.7277,0,0.7684,0.7656,0.7611,0.7596,0.7577,0.7527,0.7519,0.7494,0.7444,0.7431,0.7415,0.7358,0.7326,0.7304,0.731,0.7296,0.7291,0.7281,0.7307,0.731,0.7313,0.7319,0.7323,0.728,0.728,0.7279,0.7279,0,0.7704,0.7686,0.7685,0.764,0.762,0.7609,0.7561,0.7546,0.7517,0.7484,0.7462,0.7422,0.7385,0.7377,0.7348,0.735,0.7342,0.7318,0.7289,0.7322,0.7327,0.733,0.7285,0.7284,0.7283,0.7282,0,0,0.7781,0.7711,0.7711,0.7689,0.7638,0.7622,0.7608,0.7573,0.756,0.7528,0.7512,0.7477,0.7453,0.743,0.7397,0.7391,0.7412,0.7366,0.7364,0.7375,0.7409,0.7427,0.7431,0.7391,0.7391,0.7392,0.7412,0,0.781,0.7784,0.7742,0.7728,0.7709,0.7661,0.7648,0.7614,0.7583,0.7561,0.7526,0.7501,0.7473,0.7458,0.745,0.7412,0.7418,0.741,0.7374,0.7374,0.7385,0.7434,0.7453,0.7475,0.7414,0.7415,0.7415,0,0.7842,0.7813,0.7797,0.7746,0.7737,0.7726,0.769,0.767,0.763,0.7608,0.7582,0.7546,0.7526,0.7501,0.7472,0.7467,0.745,0.7429,0.7428,0.7422,0.7395,0.7427,0.7481,0.7483,0.7418,0.7418,0.7418,0,0.7897,0.7854,0.7838,0.7821,0.7762,0.7756,0.773,0.769,0.7671,0.7639,0.7625,0.7591,0.7572,0.7545,0.75,0.7487,0.7475,0.7447,0.7453,0.7454,0.7452,0.7452,0.7502,0.7444,0.7444,0.7444,0.7444,0,0.7933,0.7925,0.7862,0.7852,0.7841,0.7793,0.7782,0.7753,0.7717,0.7699,0.7655,0.7639,0.7581,0.7558,0.7522,0.7502,0.7494,0.7474,0.7464,0.7477,0.7479,0.7463,0.746,0.7445,0.7445,0.7444,0.7444,0,0.7992,0.795,0.793,0.7876,0.7862,0.7856,0.7809,0.7796,0.7763,0.7741,0.7733,0.7679,0.7649,0.7602,0.7558,0.7534,0.7519,0.7504,0.7533,0.7527,0.7536,0.7535,0.7575,0.7577,0.7521,0.7521,0.7522,0,0.8018,0.801,0.7956,0.7942,0.7918,0.7896,0.7876,0.7828,0.781,0.7763,0.7756,0.7723,0.7693,0.7647,0.7603,0.7568,0.7551,0.7568,0.7545,0.7558,0.7549,0.7549,0.7547,0.7572,0.7573,0.7574,0.7575,0,0.8067,0.8046,0.8021,0.7988,0.7966,0.7938,0.7907,0.7897,0.7842,0.7823,0.7792,0.777,0.7724,0.7691,0.765,0.7622,0.7588,0.7582,0.7582,0.7594,0.761,0.7599,0.7545,0.7581,0.758,0.758,0.758,0.7579,0.8108,0.8098,0.8059,0.8031,0.8003,0.7975,0.7961,0.7926,0.79,0.7861,0.7833,0.7804,0.7762,0.7704,0.7678,0.7652,0.7638,0.7637,0.7637,0.7637,0.7641,0.7616,0.7645,0.7644,0.7644,0.7644,0.7644,0,0.8153,0.8125,0.81,0.8059,0.8037,0.801,0.7974,0.7956,0.7932,0.7897,0.7869,0.7833,0.78,0.7754,0.7717,0.7705,0.7689,0.7697,0.7696,0.769,0.7657,0.766,0.7711,0.7711,0.7711,0.7711,0.7711,0.7711,0.8173,0.8155,0.813,0.8097,0.8068,0.804,0.8022,0.7995,0.7967,0.7929,0.7902,0.7873,0.7832,0.7792,0.776,0.7747,0.7734,0.7747,0.7729,0.7699,0.7692,0.7687,0.7689,0.7745,0.7745,0.7764,0.7764,0.7764]}]]